Location: Clermont
(50.2608°N, 4.3172°E)
Time: 08:25:59
(UTC+00:00)

Cosmos 1933 Rocket - Pass Details

Date: 13 August 2020
Orbit: 606 x 631 km, 82.5° (Epoch: 26 September)

Event Time Altitude Azimuth Distance (km) Brightness Sun altitude
Exits shadow 20:10:11 10° 155° (SSE) 2,007 5.6 -9.8°
Reaches altitude 10° 20:10:14 10° 155° (SSE) 1,989 5.6 -9.8°
Maximum altitude 20:14:12 34° 90° (E) 1,040 4.3 -10.4°
Drops below altitude 10° 20:18:13 10° 26° (NNE) 2,017 6.4 -10.9°
Sets 20:20:37 0° 18° (NNE) 2,932 7.3 -11.2°
